QPF
0.01 0.01 0.01 0.01 0.01 0.02 0.04 0.04 0.04 0.04 0.05 0.05 0.03 0.02 0.02 0.03 0.03 0.01 0.02 0.03 0.05 0.08 0.10 0.12 0.09 0.06 0.08 0.09 0.08 0.07 0.06 0.06 0.06 0.05 0.05 0.04 0.04 0.04 0.04 0.04 0.04 0.04 0.05
0.01 0.01 0.01 0.02 0.02 0.02 0.03 0.04 0.03 0.03 0.05 0.05 0.02 0.01 0.01 0.03 0.03 0.03 0.03 0.03 0.05 0.07 0.09 0.11 0.08 0.08 0.09 0.09 0.08 0.07 0.05 0.05 0.04 0.04 0.04 0.04 0.03 0.02 0.03 0.02 0.03 0.03 0.04
0.01 0.01 0.01 0.02 0.01 0.01 0.01 0.03 0.03 0.02 0.03 0.03 0.02 0.01 0.01 0.02 0.02 0.02 0.03 0.05 0.06 0.06 0.07 0.08 0.07 0.07 0.07 0.06 0.05 0.04 0.03 0.03 0.03 0.04 0.04 0.03 0.02 0.02 0.03 0.04 0.04 0.04 0.04
0.00 0.01 0.02 0.01 0.01 0.01 0.01 0.02 0.02 0.02 0.03 0.03 0.02 0.01 0.01 0.02 0.02 0.02 0.04 0.04 0.05 0.05 0.04 0.06 0.06 0.04 0.04 0.04 0.03 0.03 0.01 0.02 0.03 0.04 0.04 0.03 0.02 0.03 0.04 0.05 0.05 0.04 0.05
0.01 0.01 0.03 0.02 0.01 0.01 0.02 0.02 0.02 0.03 0.04 0.03 0.02 0.02 0.01 0.02 0.02 0.02 0.03 0.03 0.04 0.05 0.05 0.14 0.12 0.03 0.03 0.03 0.03 0.03 0.02 0.04 0.04 0.04 0.03 0.03 0.02 0.03 0.05 0.04 0.04 0.04 0.04
0.00 0.00 0.01 0.01 0.02 0.02 0.02 0.03 0.03 0.04 0.04 0.03 0.02 0.01 0.02 0.02 0.03 0.03 0.05 0.05 0.06 0.04 0.10 0.25 0.18 0.04 0.03 0.03 0.03 0.04 0.04 0.04 0.04 0.04 0.04 0.03 0.02 0.05 0.04 0.03 0.03 0.02 0.03
0.00 0.00 0.01 0.01 0.02 0.03 0.03 0.02 0.03 0.04 0.04 0.03 0.03 0.03 0.03 0.04 0.03 0.04 0.04 0.06 0.08 0.07 0.11 0.18 0.17 0.07 0.03 0.03 0.04 0.06 0.06 0.04 0.04 0.05 0.04 0.04 0.05 0.05 0.03 0.03 0.02 0.02 0.02
0.00 0.00 0.00 0.01 0.01 0.02 0.02 0.03 0.04 0.05 0.04 0.03 0.03 0.04 0.04 0.05 0.06 0.05 0.05 0.05 0.08 0.07 0.07 0.10 0.11 0.08 0.05 0.04 0.06 0.06 0.05 0.05 0.05 0.06 0.07 0.08 0.07 0.06 0.05 0.03 0.02 0.02 0.02
0.01 0.01 0.01 0.00 0.01 0.02 0.02 0.03 0.02 0.05 0.05 0.03 0.03 0.04 0.05 0.05 0.06 0.06 0.05 0.04 0.05 0.06 0.06 0.07 0.07 0.08 0.08 0.08 0.07 0.07 0.08 0.08 0.08 0.08 0.07 0.05 0.04 0.04 0.03 0.03 0.02 0.03 0.02
0.00 0.01 0.00 0.01 0.01 0.01 0.01 0.01 0.01 0.03 0.05 0.04 0.03 0.03 0.04 0.04 0.04 0.05 0.04 0.03 0.03 0.04 0.05 0.06 0.05 0.05 0.05 0.05 0.06 0.06 0.12 0.15 0.10 0.07 0.05 0.04 0.04 0.03 0.02 0.02 0.02 0.03 0.03
0.00 0.00 0.00 0.01 0.01 0.01 0.01 0.01 0.01 0.03 0.04 0.05 0.04 0.03 0.03 0.04 0.03 0.04 0.04 0.03 0.02 0.03 0.03 0.04 0.05 0.04 0.03 0.03 0.04 0.05 0.09 0.12 0.08 0.06 0.06 0.06 0.05 0.03 0.02 0.02 0.03 0.03 0.03
0.01 0.00 0.01 0.01 0.01 0.01 0.01 0.02 0.01 0.01 0.02 0.03 0.03 0.03 0.03 0.04 0.04 0.03 0.04 0.04 0.03 0.02 0.02 0.03 0.03 0.03 0.03 0.03 0.03 0.04 0.05 0.05 0.05 0.04 0.05 0.06 0.04 0.02 0.01 0.02 0.03 0.02 0.02
0.00 0.00 0.00 0.01 0.01 0.01 0.01 0.01 0.01 0.01 0.01 0.02 0.02 0.01 0.01 0.02 0.02 0.02 0.03 0.03 0.02 0.02 0.02 0.03 0.03 0.01 0.01 0.03 0.04 0.02 0.04 0.04 0.03 0.03 0.04 0.03 0.01 0.00 0.00 0.00 0.01 0.01 0.01
0.00 0.00 0.00 0.01 0.01 0.01 0.01 0.01 0.01 0.01 0.00 0.01 0.00 0.00 0.01 0.01 0.02 0.02 0.02 0.02 0.03 0.03 0.02 0.02 0.02 0.02 0.02 0.02 0.03 0.02 0.02 0.02 0.02 0.03 0.03 0.01 0.00 0.00 0.01 0.01 0.01 0.00 0.00
0.00 0.00 0.00 0.01 0.01 0.00 0.00 0.01 0.01 0.01 0.00 0.00 0.00 0.01 0.01 0.01 0.00 0.00 0.01 0.01 0.03 0.03 0.02 0.02 0.02 0.02 0.02 0.02 0.03 0.02 0.01 0.01 0.01 0.03 0.02 0.00 0.00 0.00 0.00 0.00 0.00 0.00 0.00
0.01 0.00 0.00 0.01 0.02 0.01 0.00 0.01 0.02 0.02 0.01 0.01 0.01 0.01 0.01 0.01 0.00 0.00 0.00 0.00 0.01 0.02 0.02 0.01 0.01 0.01 0.01 0.02 0.02 0.02 0.02 0.02 0.02 0.02 0.01 0.00 0.00 0.00 0.00 0.00 0.00 0.00 0.00
0.02 0.01 0.00 0.01 0.01 0.01 0.01 0.01 0.02 0.02 0.02 0.01 0.01 0.01 0.01 0.01 0.01 0.00 0.00 0.00 0.00 0.01 0.01 0.01 0.01 0.01 0.01 0.01 0.02 0.02 0.03 0.03 0.02 0.01 0.01 0.00 0.00 0.00 0.00 0.00 0.00 0.00 0.00
0.01 0.01 0.01 0.01 0.01 0.00 0.01 0.00 0.01 0.01 0.01 0.01 0.00 0.01 0.00 0.00 0.00 0.00 0.01 0.01 0.00 0.00 0.01 0.02 0.02 0.02 0.01 0.00 0.00 0.01 0.02 0.03 0.02 0.01 0.01 0.00 0.00 0.00 0.00 0.00 0.00 0.00 0.00
0.01 0.01 0.01 0.01 0.00 0.00 0.00 0.00 0.00 0.00 0.00 0.00 0.00 0.00 0.00 0.00 0.01 0.00 0.01 0.01 0.00 0.00 0.00 0.02 0.02 0.02 0.01 0.00 0.00 0.00 0.00 0.01 0.01 0.01 0.01 0.00 0.00 0.00 0.00 0.00 0.00 0.00 0.00
0.01 0.01 0.01 0.01 0.01 0.00 0.00 0.01 0.01 0.00 0.00 0.00 0.00 0.00 0.00 0.00 0.01 0.01 0.01 0.01 0.00 0.00 0.00 0.01 0.01 0.01 0.01 0.01 0.00 0.01 0.00 0.01 0.00 0.00 0.00 0.00 0.00 0.00 0.00 0.00 0.00 0.00 0.00
0.00 0.00 0.01 0.01 0.00 0.00 0.00 0.00 0.00 0.00 0.00 0.01 0.00 0.00 0.00 0.00 0.00 0.00 0.00 0.01 0.01 0.00 0.00 0.00 0.00 0.00 0.01 0.01 0.00 0.01 0.01 0.01 0.01 0.00 0.00 0.00 0.00 0.00 0.00 0.00 0.00 0.00 0.00
0.00 0.00 0.00 0.00 0.00 0.00 0.01 0.00 0.00 0.00 0.01 0.01 0.01 0.01 0.01 0.01 0.00 0.00 0.00 0.00 0.00 0.00 0.00 0.00 0.00 0.00 0.00 0.01 0.01 0.01 0.00 0.01 0.01 0.00 0.00 0.00 0.00 0.00 0.00 0.00 0.00 0.00 0.00
0.00 0.00 0.00 0.00 0.00 0.00 0.01 0.01 0.01 0.01 0.01 0.01 0.01 0.01 0.01 0.00 0.00 0.00 0.00 0.00 0.00 0.00 0.00 0.00 0.00 0.00 0.00 0.01 0.01 0.01 0.00 0.00 0.00 0.00 0.00 0.00 0.01 0.00 0.01 0.01 0.00 0.00 0.00
0.00 0.00 0.00 0.00 0.01 0.00 0.00 0.00 0.00 0.00 0.00 0.00 0.00 0.00 0.00 0.00 0.00 0.00 0.00 0.00 0.00 0.00 0.00 0.00 0.00 0.00 0.00 0.00 0.01 0.01 0.01 0.01 0.00 0.00 0.00 0.01 0.01 0.00 0.01 0.00 0.00 0.00 0.00
0.00 0.00 0.00 0.00 0.00 0.00 0.00 0.00 0.00 0.00 0.00 0.00 0.00 0.00 0.00 0.00 0.00 0.00 0.00 0.01 0.01 0.01 0.00 0.00 0.00 0.00 0.00 0.00 0.01 0.00 0.00 0.00 0.01 0.01 0.01 0.01 0.01 0.01 0.00 0.00 0.00 0.00 0.01
0.00 0.00 0.00 0.00 0.00 0.01 0.01 0.00 0.00 0.00 0.00 0.00 0.00 0.00 0.00 0.00 0.00 0.00 0.00 0.00 0.00 0.01 0.00 0.00 0.00 0.00 0.00 0.01 0.01 0.01 0.00 0.01 0.01 0.01 0.01 0.01 0.01 0.01 0.01 0.01 0.00 0.00 0.01
MSLP
1015.69 1016.01 1016.27 1016.47 1016.62 1016.76 1016.91 1017.10 1017.33 1017.60 1017.88 1018.15 1018.40 1018.63 1018.83 1019.01 1019.19 1019.36 1019.54 1019.69 1019.82 1019.89 1019.91 1019.86 1019.76 1019.63 1019.47 1019.32 1019.19 1019.07 1018.97 1018.86 1018.75 1018.62 1018.47 1018.29 1018.09 1017.87 1017.62 1017.35 1017.03 1016.66 1016.24
1015.77 1016.09 1016.37 1016.60 1016.82 1017.03 1017.25 1017.51 1017.80 1018.11 1018.42 1018.72 1018.98 1019.22 1019.42 1019.60 1019.77 1019.94 1020.09 1020.23 1020.34 1020.42 1020.44 1020.40 1020.32 1020.20 1020.06 1019.92 1019.79 1019.67 1019.56 1019.45 1019.33 1019.20 1019.06 1018.90 1018.72 1018.52 1018.30 1018.05 1017.77 1017.44 1017.05
1015.88 1016.18 1016.47 1016.74 1017.02 1017.31 1017.61 1017.94 1018.29 1018.65 1018.99 1019.31 1019.58 1019.81 1020.01 1020.18 1020.32 1020.46 1020.60 1020.71 1020.81 1020.88 1020.90 1020.88 1020.81 1020.72 1020.60 1020.48 1020.35 1020.23 1020.11 1020.00 1019.87 1019.74 1019.59 1019.44 1019.28 1019.10 1018.90 1018.69 1018.44 1018.14 1017.81
1016.02 1016.29 1016.58 1016.89 1017.22 1017.57 1017.95 1018.35 1018.75 1019.15 1019.52 1019.84 1020.12 1020.35 1020.53 1020.68 1020.81 1020.92 1021.03 1021.13 1021.22 1021.28 1021.31 1021.30 1021.27 1021.20 1021.10 1021.00 1020.88 1020.75 1020.63 1020.49 1020.36 1020.21 1020.07 1019.91 1019.76 1019.60 1019.42 1019.23 1019.01 1018.76 1018.47
1016.19 1016.42 1016.70 1017.02 1017.39 1017.80 1018.23 1018.68 1019.12 1019.55 1019.93 1020.26 1020.53 1020.76 1020.93 1021.07 1021.19 1021.30 1021.40 1021.49 1021.58 1021.64 1021.69 1021.71 1021.70 1021.66 1021.59 1021.50 1021.38 1021.26 1021.12 1020.97 1020.81 1020.65 1020.50 1020.34 1020.19 1020.03 1019.87 1019.69 1019.49 1019.27 1019.02
1016.40 1016.58 1016.84 1017.16 1017.55 1017.98 1018.44 1018.91 1019.36 1019.79 1020.17 1020.50 1020.78 1021.00 1021.18 1021.33 1021.46 1021.58 1021.70 1021.81 1021.91 1022.01 1022.08 1022.14 1022.16 1022.15 1022.10 1022.02 1021.91 1021.77 1021.61 1021.44 1021.27 1021.09 1020.93 1020.77 1020.61 1020.46 1020.30 1020.13 1019.93 1019.72 1019.48
1016.66 1016.79 1017.02 1017.32 1017.70 1018.13 1018.58 1019.04 1019.48 1019.89 1020.26 1020.57 1020.85 1021.08 1021.29 1021.47 1021.63 1021.79 1021.95 1022.10 1022.25 1022.38 1022.50 1022.59 1022.65 1022.67 1022.64 1022.58 1022.47 1022.32 1022.14 1021.96 1021.76 1021.57 1021.39 1021.23 1021.07 1020.91 1020.75 1020.57 1020.37 1020.14 1019.90
1016.98 1017.07 1017.26 1017.53 1017.88 1018.28 1018.70 1019.12 1019.52 1019.89 1020.22 1020.52 1020.79 1021.04 1021.28 1021.51 1021.73 1021.94 1022.16 1022.37 1022.57 1022.76 1022.93 1023.07 1023.17 1023.22 1023.22 1023.16 1023.05 1022.90 1022.71 1022.51 1022.30 1022.10 1021.91 1021.74 1021.58 1021.42 1021.24 1021.05 1020.82 1020.57 1020.31
1017.37 1017.43 1017.59 1017.83 1018.13 1018.48 1018.84 1019.20 1019.54 1019.85 1020.14 1020.41 1020.68 1020.94 1021.21 1021.49 1021.77 1022.05 1022.33 1022.61 1022.87 1023.12 1023.34 1023.52 1023.66 1023.75 1023.77 1023.73 1023.63 1023.48 1023.29 1023.07 1022.85 1022.65 1022.46 1022.29 1022.12 1021.96 1021.78 1021.57 1021.32 1021.03 1020.72
1017.81 1017.87 1018.00 1018.21 1018.47 1018.77 1019.07 1019.36 1019.62 1019.87 1020.11 1020.34 1020.59 1020.86 1021.15 1021.47 1021.79 1022.13 1022.47 1022.79 1023.10 1023.40 1023.66 1023.88 1024.06 1024.18 1024.24 1024.22 1024.14 1023.99 1023.80 1023.59 1023.38 1023.17 1022.99 1022.82 1022.67 1022.51 1022.32 1022.09 1021.82 1021.50 1021.15
1018.29 1018.35 1018.48 1018.67 1018.90 1019.15 1019.39 1019.62 1019.82 1020.00 1020.18 1020.37 1020.60 1020.85 1021.15 1021.48 1021.83 1022.19 1022.55 1022.90 1023.24 1023.56 1023.84 1024.10 1024.31 1024.46 1024.55 1024.56 1024.50 1024.38 1024.21 1024.01 1023.80 1023.61 1023.44 1023.28 1023.14 1022.99 1022.80 1022.57 1022.29 1021.95 1021.56
1018.74 1018.83 1018.97 1019.17 1019.39 1019.61 1019.81 1019.99 1020.13 1020.26 1020.39 1020.54 1020.73 1020.96 1021.24 1021.55 1021.89 1022.24 1022.59 1022.93 1023.26 1023.58 1023.87 1024.14 1024.37 1024.55 1024.67 1024.72 1024.69 1024.59 1024.45 1024.27 1024.08 1023.90 1023.74 1023.60 1023.48 1023.34 1023.17 1022.95 1022.67 1022.32 1021.93
1019.13 1019.25 1019.43 1019.65 1019.88 1020.10 1020.29 1020.44 1020.55 1020.64 1020.73 1020.84 1020.99 1021.18 1021.42 1021.69 1021.99 1022.30 1022.61 1022.91 1023.21 1023.49 1023.77 1024.03 1024.27 1024.47 1024.62 1024.69 1024.70 1024.64 1024.52 1024.36 1024.18 1024.02 1023.87 1023.75 1023.64 1023.52 1023.37 1023.18 1022.92 1022.59 1022.20
1019.42 1019.59 1019.82 1020.07 1020.34 1020.58 1020.78 1020.93 1021.03 1021.10 1021.16 1021.24 1021.35 1021.50 1021.69 1021.91 1022.15 1022.40 1022.64 1022.88 1023.12 1023.36 1023.60 1023.85 1024.08 1024.29 1024.45 1024.55 1024.59 1024.55 1024.45 1024.30 1024.14 1023.98 1023.84 1023.72 1023.62 1023.52 1023.40 1023.24 1023.01 1022.73 1022.38
1019.60 1019.82 1020.10 1020.41 1020.72 1021.00 1021.23 1021.40 1021.51 1021.59 1021.64 1021.70 1021.79 1021.90 1022.04 1022.21 1022.38 1022.56 1022.73 1022.90 1023.08 1023.26 1023.46 1023.68 1023.89 1024.10 1024.27 1024.38 1024.43 1024.40 1024.31 1024.17 1024.00 1023.83 1023.68 1023.56 1023.46 1023.37 1023.28 1023.15 1022.97 1022.74 1022.44
1019.70 1019.98 1020.31 1020.67 1021.03 1021.35 1021.62 1021.82 1021.96 1022.05 1022.11 1022.17 1022.24 1022.33 1022.44 1022.56 1022.69 1022.81 1022.92 1023.03 1023.15 1023.28 1023.44 1023.62 1023.82 1024.01 1024.17 1024.28 1024.32 1024.29 1024.19 1024.03 1023.84 1023.65 1023.47 1023.33 1023.22 1023.13 1023.05 1022.96 1022.82 1022.64 1022.41
1019.78 1020.10 1020.48 1020.89 1021.29 1021.65 1021.96 1022.19 1022.36 1022.47 1022.55 1022.61 1022.69 1022.77 1022.87 1022.97 1023.07 1023.16 1023.23 1023.31 1023.39 1023.48 1023.60 1023.75 1023.92 1024.08 1024.22 1024.31 1024.33 1024.27 1024.14 1023.95 1023.73 1023.49 1023.28 1023.10 1022.96 1022.86 1022.79 1022.71 1022.61 1022.48 1022.30
1019.90 1020.26 1020.67 1021.11 1021.54 1021.93 1022.26 1022.51 1022.70 1022.83 1022.93 1023.01 1023.10 1023.20 1023.30 1023.40 1023.50 1023.59 1023.66 1023.72 1023.78 1023.85 1023.95 1024.07 1024.20 1024.33 1024.43 1024.48 1024.47 1024.38 1024.21 1023.98 1023.71 1023.43 1023.17 1022.94 1022.77 1022.64 1022.55 1022.47 1022.39 1022.29 1022.15
1020.10 1020.49 1020.93 1021.38 1021.82 1022.22 1022.55 1022.81 1023.01 1023.15 1023.26 1023.36 1023.47 1023.59 1023.72 1023.84 1023.96 1024.06 1024.15 1024.22 1024.28 1024.34 1024.42 1024.51 1024.61 1024.70 1024.76 1024.77 1024.71 1024.58 1024.37 1024.10 1023.79 1023.46 1023.16 1022.89 1022.67 1022.51 1022.39 1022.29 1022.21 1022.11 1021.99
1020.40 1020.81 1021.26 1021.72 1022.15 1022.53 1022.85 1023.10 1023.29 1023.44 1023.56 1023.67 1023.80 1023.94 1024.10 1024.25 1024.40 1024.54 1024.65 1024.73 1024.80 1024.86 1024.92 1024.99 1025.05 1025.10 1025.12 1025.08 1024.99 1024.82 1024.58 1024.28 1023.94 1023.59 1023.26 1022.95 1022.70 1022.49 1022.33 1022.20 1022.09 1021.97 1021.83
1020.76 1021.19 1021.64 1022.08 1022.49 1022.85 1023.15 1023.38 1023.56 1023.70 1023.82 1023.94 1024.09 1024.25 1024.43 1024.62 1024.80 1024.96 1025.09 1025.19 1025.27 1025.32 1025.36 1025.40 1025.43 1025.43 1025.41 1025.35 1025.22 1025.04 1024.79 1024.49 1024.15 1023.79 1023.44 1023.12 1022.84 1022.59 1022.39 1022.21 1022.05 1021.88 1021.70
1021.13 1021.57 1022.01 1022.43 1022.81 1023.15 1023.42 1023.63 1023.79 1023.92 1024.05 1024.18 1024.34 1024.52 1024.72 1024.92 1025.12 1025.29 1025.43 1025.53 1025.60 1025.64 1025.66 1025.67 1025.66 1025.63 1025.58 1025.49 1025.36 1025.18 1024.95 1024.67 1024.35 1024.02 1023.69 1023.37 1023.07 1022.80 1022.55 1022.32 1022.09 1021.86 1021.62
1021.42 1021.86 1022.29 1022.69 1023.05 1023.36 1023.61 1023.82 1023.98 1024.12 1024.25 1024.39 1024.56 1024.75 1024.95 1025.16 1025.36 1025.52 1025.65 1025.74 1025.79 1025.80 1025.79 1025.76 1025.72 1025.66 1025.60 1025.50 1025.38 1025.23 1025.03 1024.80 1024.54 1024.25 1023.96 1023.66 1023.36 1023.07 1022.78 1022.49 1022.20 1021.89 1021.58
1021.56 1022.01 1022.43 1022.81 1023.16 1023.46 1023.71 1023.92 1024.10 1024.26 1024.42 1024.58 1024.76 1024.95 1025.15 1025.35 1025.52 1025.67 1025.77 1025.82 1025.83 1025.81 1025.76 1025.70 1025.63 1025.56 1025.48 1025.40 1025.30 1025.19 1025.05 1024.88 1024.69 1024.47 1024.22 1023.96 1023.67 1023.37 1023.05 1022.71 1022.35 1021.97 1021.58
1021.55 1021.99 1022.39 1022.77 1023.12 1023.43 1023.70 1023.94 1024.16 1024.36 1024.55 1024.74 1024.94 1025.14 1025.33 1025.50 1025.64 1025.75 1025.80 1025.82 1025.79 1025.72 1025.64 1025.55 1025.46 1025.38 1025.31 1025.25 1025.19 1025.12 1025.04 1024.94 1024.81 1024.65 1024.46 1024.23 1023.96 1023.66 1023.31 1022.92 1022.50 1022.05 1021.59
1021.38 1021.82 1022.22 1022.60 1022.96 1023.29 1023.60 1023.89 1024.16 1024.41 1024.65 1024.88 1025.10 1025.30 1025.48 1025.62 1025.73 1025.79 1025.80 1025.77 1025.71 1025.61 1025.51 1025.40 1025.31 1025.23 1025.17 1025.12 1025.10 1025.07 1025.04 1024.99 1024.92 1024.81 1024.65 1024.45 1024.20 1023.88 1023.51 1023.08 1022.61 1022.10 1021.58
Thickness
5728 5726 5726 5725 5724 5724 5724 5723 5723 5722 5722 5722 5722 5721 5721 5721 5719 5718 5717 5718 5718 5719 5720 5720 5721 5721 5721 5722 5722 5722 5722 5723 5724 5724 5725 5725 5726 5727 5728 5728 5729 5730 5732
5725 5724 5722 5722 5721 5721 5721 5720 5719 5718 5718 5718 5717 5718 5717 5717 5716 5715 5714 5714 5714 5715 5715 5716 5717 5717 5717 5717 5718 5718 5718 5719 5719 5720 5720 5721 5722 5723 5723 5724 5725 5725 5727
5723 5721 5719 5718 5718 5717 5717 5716 5715 5715 5714 5713 5713 5713 5713 5714 5713 5713 5712 5711 5711 5711 5711 5711 5712 5712 5712 5713 5713 5714 5714 5714 5715 5715 5716 5716 5717 5717 5718 5718 5719 5720 5721
5719 5718 5716 5714 5714 5714 5713 5712 5711 5710 5709 5708 5708 5709 5709 5710 5710 5710 5710 5708 5708 5707 5706 5706 5707 5707 5708 5708 5709 5709 5710 5710 5710 5711 5711 5711 5711 5712 5712 5713 5714 5715 5715
5716 5714 5713 5712 5711 5710 5709 5709 5707 5706 5704 5703 5704 5705 5705 5706 5706 5707 5706 5706 5705 5704 5703 5702 5703 5703 5704 5704 5705 5705 5706 5706 5706 5706 5706 5706 5706 5707 5707 5707 5708 5709 5710
5712 5711 5710 5709 5708 5706 5705 5704 5703 5703 5701 5701 5702 5701 5701 5702 5702 5702 5702 5702 5702 5701 5700 5699 5700 5699 5699 5699 5700 5701 5701 5702 5702 5702 5701 5701 5701 5702 5702 5702 5703 5703 5704
5709 5709 5708 5706 5705 5703 5702 5701 5700 5699 5698 5699 5696 5693 5695 5698 5697 5697 5698 5698 5697 5697 5697 5697 5697 5696 5694 5694 5695 5695 5696 5697 5697 5697 5696 5696 5696 5696 5696 5696 5696 5697 5698
5707 5706 5705 5703 5702 5700 5699 5698 5697 5695 5695 5697 5693 5689 5684 5685 5690 5693 5694 5693 5692 5692 5693 5693 5692 5691 5690 5690 5689 5690 5691 5691 5691 5691 5691 5690 5690 5690 5690 5690 5690 5691 5691
5704 5703 5703 5702 5700 5699 5696 5696 5695 5693 5691 5693 5694 5689 5683 5678 5681 5685 5688 5688 5688 5688 5688 5688 5688 5687 5687 5685 5685 5685 5686 5686 5686 5685 5685 5685 5684 5684 5684 5684 5684 5684 5685
5702 5701 5701 5700 5699 5698 5696 5695 5694 5693 5691 5688 5691 5693 5691 5688 5681 5676 5680 5683 5684 5683 5684 5684 5684 5683 5682 5681 5680 5680 5680 5680 5679 5679 5679 5679 5678 5678 5678 5678 5678 5678 5678
5700 5699 5698 5698 5697 5696 5695 5694 5693 5692 5691 5688 5688 5688 5688 5688 5687 5679 5672 5675 5677 5679 5679 5680 5679 5678 5677 5676 5675 5674 5674 5674 5674 5673 5673 5673 5673 5672 5672 5671 5671 5671 5671
5698 5698 5697 5696 5695 5694 5693 5692 5691 5690 5689 5688 5687 5687 5684 5682 5680 5679 5674 5672 5671 5673 5675 5676 5675 5674 5673 5672 5671 5670 5670 5669 5668 5668 5667 5667 5667 5666 5666 5665 5665 5664 5664
5695 5695 5695 5694 5693 5692 5691 5690 5689 5688 5688 5686 5685 5684 5684 5682 5682 5680 5675 5672 5670 5670 5671 5671 5672 5671 5670 5668 5667 5666 5665 5665 5664 5663 5662 5661 5661 5660 5659 5658 5658 5657 5657
5695 5695 5694 5693 5692 5691 5690 5688 5687 5687 5686 5685 5684 5683 5681 5681 5680 5678 5675 5671 5666 5666 5667 5666 5668 5668 5667 5666 5664 5662 5661 5660 5659 5658 5657 5656 5655 5654 5653 5651 5651 5650 5650
5696 5695 5693 5691 5690 5689 5688 5687 5685 5684 5684 5682 5681 5681 5679 5679 5678 5677 5676 5673 5667 5660 5659 5662 5663 5664 5664 5663 5661 5659 5657 5656 5655 5653 5652 5651 5649 5648 5647 5645 5644 5643 5643
5696 5694 5692 5690 5688 5687 5686 5685 5683 5682 5681 5679 5679 5678 5677 5676 5676 5675 5674 5673 5670 5665 5658 5660 5661 5662 5661 5660 5658 5656 5654 5652 5651 5649 5648 5646 5644 5643 5641 5639 5638 5637 5636
5694 5693 5691 5689 5687 5685 5684 5682 5681 5680 5678 5677 5677 5676 5674 5674 5672 5672 5671 5669 5667 5664 5657 5657 5659 5659 5658 5656 5654 5653 5651 5649 5647 5645 5643 5641 5639 5637 5635 5634 5632 5630 5629
5694 5693 5691 5688 5686 5684 5683 5681 5678 5678 5676 5675 5674 5673 5672 5672 5670 5669 5667 5665 5664 5662 5658 5654 5654 5654 5654 5653 5651 5649 5648 5645 5643 5641 5639 5637 5634 5632 5630 5628 5626 5624 5622
5692 5691 5690 5687 5685 5683 5681 5680 5678 5676 5675 5674 5673 5671 5670 5669 5666 5665 5664 5662 5661 5660 5658 5653 5650 5651 5650 5650 5647 5645 5644 5641 5639 5637 5635 5632 5630 5627 5624 5622 5620 5617 5616
5691 5689 5688 5686 5684 5682 5680 5678 5677 5675 5674 5673 5672 5670 5668 5667 5664 5663 5661 5659 5658 5655 5653 5650 5647 5646 5645 5645 5643 5639 5636 5636 5635 5633 5630 5628 5625 5622 5619 5616 5614 5611 5609
5689 5687 5685 5684 5682 5680 5678 5676 5674 5673 5671 5670 5669 5667 5666 5664 5662 5660 5658 5655 5653 5650 5648 5645 5642 5641 5640 5638 5636 5635 5631 5630 5629 5628 5625 5622 5619 5616 5613 5610 5608 5605 5603
5686 5684 5682 5680 5678 5677 5675 5674 5671 5670 5668 5666 5664 5663 5662 5660 5659 5657 5655 5653 5651 5647 5644 5641 5638 5636 5635 5634 5632 5630 5626 5623 5620 5622 5619 5616 5614 5611 5608 5605 5602 5599 5597
5682 5680 5678 5677 5674 5673 5672 5670 5669 5666 5665 5663 5662 5660 5659 5658 5656 5653 5651 5650 5647 5646 5643 5639 5636 5633 5631 5630 5628 5624 5621 5617 5615 5616 5613 5609 5608 5604 5602 5599 5596 5593 5590
5678 5677 5675 5674 5671 5669 5668 5666 5665 5663 5661 5660 5659 5657 5655 5653 5652 5650 5648 5645 5642 5641 5639 5637 5634 5632 5630 5627 5624 5620 5617 5614 5612 5610 5608 5602 5602 5598 5596 5593 5590 5586 5583
5676 5674 5673 5671 5668 5666 5664 5662 5660 5658 5657 5656 5656 5654 5652 5649 5647 5645 5642 5639 5637 5635 5634 5633 5631 5629 5626 5623 5619 5615 5610 5606 5603 5602 5601 5597 5595 5592 5589 5586 5583 5579 5575
5673 5672 5670 5668 5666 5663 5661 5658 5656 5654 5652 5651 5650 5649 5647 5644 5642 5639 5636 5634 5630 5629 5628 5626 5624 5622 5619 5617 5613 5609 5605 5599 5596 5593 5593 5589 5586 5583 5579 5578 5575 5571 5567